[ hide orbit diagram ]
For accurate long-term ephemerides, please instead use our Horizons system.This orbit viewer was implemented using two-body methods, and hence should not be used for determining accurate long-term trajectories (over several years or decades) or planetary encounter circumstances.
Orbital Elements at Epoch 2459200.5 (2020-Dec-17.0) TDB
Reference: JPL 39 (heliocentric ecliptic J2000)
Element | Value | Uncertainty (1-sigma) | Units |
e | .1655173981653061 | 2.0328e-08 | |
a | 2.153480014379401 | 5.3255e-09 | au |
q | 1.797041605398336 | 4.4407e-08 | au |
i | 1.147068646929633 | 3.3998e-07 | deg |
node | 173.3895199062487 | 4.1663e-05 | deg |
peri | 185.5712845367793 | 4.1968e-05 | deg |
M | 355.064496253488 | 4.802e-06 | deg |
tp | 2459216.324816414282 (2021-Jan-01.82481641) | 1.5431e-05 | TDB |
period | 1154.276078336985 3.16 | 4.2818e-06 1.172e-08 | d yr |
n | .3118837917170278 | 1.1569e-09 | deg/d |
Q | 2.509918423360465 | 6.207e-09 | au |
|
| | Orbit Determination Parameters
Additional Information
|
[ show covariance matrix ]
Physical Parameter Table
Parameter |
Symbol |
Value |
Units |
Sigma |
Reference |
Notes |
absolute magnitude |
H |
13.79 |
|
n/a |
E2020-QM5 |
|
diameter |
diameter |
5.084 |
km |
0.119 |
urn:nasa:pds:neowise_diameters_albedos::2.0[mainbelt] (http://adsabs.harvard.edu/abs/2011ApJ...741...68M) |
|
rotation period |
rot_per |
7.413 |
h |
n/a |
LCDB (Rev. 2020-October); Warner et al., 2009 |
Published Reference List: [Melton, E.; Carver, S.; Harris, A.; Karnemaat, R.; et al. (2012) Minor Planet Bull. 39, 131-133.] [Durech, J.; Hanus, J.; Ali-Lagoa, V. (2018) Astron. Astrophys. 617, A57.] |
geometric albedo |
albedo |
0.226 |
|
0.046 |
urn:nasa:pds:neowise_diameters_albedos::2.0[mainbelt] (http://adsabs.harvard.edu/abs/2011ApJ...741...68M) |
|
|
4359 Berlage (1935 TG) Discovered 1935-Sep-28 by van Gent, H. at Johannesburg |
Reference: DISCOVERY.DB | Last Updated: 2003-08-29 |
|
Alternate Designations
1935 TG = 1951 WQ1 = 1954 UM = 1973 UZ = 1976 QD2 = 1976 SA7 = 1979 OZ13 = 1979 QA7 |
|
|